SB KEPS @ AMSAT $ORB10056.O Orbital Elements 10056.OSCAR
HR AMSAT ORBITAL ELEMENTS FOR OSCAR SATELLITES FROM WA5QGD FORT WORTH,TX February 25, 2010 Send Subscribe/unsubscribe to KEPS at http://www.amsat.org/mailman/listinfo/keps BID: ORB10056.O TO ALL RADIO AMATEURS BT
Satellite: AO-07 Catalog number: 07530 Epoch time: 10056.63353297 Element set: 713 Inclination: 101.4104 deg RA of node: 076.8035 deg Eccentricity: 0.0012025 Arg of perigee: 132.0448 deg Mean anomaly: 228.1642 deg Mean motion: 12.53577727 rev/day Decay rate: -2.7e-07 rev/day^2 Epoch rev: 61447 Checksum: 269
Satellite: FO-29 Catalog number: 24278 Epoch time: 10055.62411632 Element set: 254 Inclination: 098.5208 deg RA of node: 260.2776 deg Eccentricity: 0.0351345 Arg of perigee: 055.9179 deg Mean anomaly: 307.4783 deg Mean motion: 13.52947851 rev/day Decay rate: 1.0e-08 rev/day^2 Epoch rev: 66788 Checksum: 325
Satellite: SO-33 Catalog number: 25509 Epoch time: 10055.45016322 Element set: 656 Inclination: 031.4328 deg RA of node: 066.0282 deg Eccentricity: 0.0353762 Arg of perigee: 024.1404 deg Mean anomaly: 337.5391 deg Mean motion: 14.28291608 rev/day Decay rate: 3.20e-06 rev/day^2 Epoch rev: 59192 Checksum: 277
Satellite: RS-22 Catalog number: 27939 Epoch time: 10056.19447761 Element set: 18 Inclination: 097.9099 deg RA of node: 286.3248 deg Eccentricity: 0.0014532 Arg of perigee: 056.1468 deg Mean anomaly: 304.1129 deg Mean motion: 14.63385216 rev/day Decay rate: 1.03e-06 rev/day^2 Epoch rev: 34257 Checksum: 309
Satellite: VO-52 Catalog number: 28650 Epoch time: 10056.10061577 Element set: 443 Inclination: 097.7080 deg RA of node: 113.8326 deg Eccentricity: 0.0025930 Arg of perigee: 283.9061 deg Mean anomaly: 075.9258 deg Mean motion: 14.81688273 rev/day Decay rate: -1.2e-07 rev/day^2 Epoch rev: 26009 Checksum: 297
Satellite: SO-67 Catalog number: 35870 Epoch time: 10056.79905536 Element set: 479 Inclination: 097.3482 deg RA of node: 108.6502 deg Eccentricity: 0.0012951 Arg of perigee: 088.1532 deg Mean anomaly: 024.3020 deg Mean motion: 15.22906810 rev/day Decay rate: 9.62e-06 rev/day^2 Epoch rev: 2451 Checksum: 296
Satellite: HO-68 Catalog number: 36122 Epoch time: 10056.74418607 Element set: 142 Inclination: 100.4848 deg RA of node: 118.2436 deg Eccentricity: 0.0007177 Arg of perigee: 229.9221 deg Mean anomaly: 130.1267 deg Mean motion: 13.16279839 rev/day Decay rate: -4.5e-07 rev/day^2 Epoch rev: 955 Checksum: 292
/EX SB KEPS @ AMSAT $ORB10056.D Orbital Elements 10056.MICROS
HR AMSAT ORBITAL ELEMENTS FOR THE MICROSATS FROM WA5QGD FORT WORTH,TX February 25, 2010 Send Subscribe/unsubscribe to KEPS at http://www.amsat.org/mailman/listinfo/keps BID: ORB10056.D TO ALL RADIO AMATEURS BT
Satellite: UO-11 Catalog number: 14781 Epoch time: 10056.11440102 Element set: 183 Inclination: 098.0709 deg RA of node: 107.4339 deg Eccentricity: 0.0007980 Arg of perigee: 240.1450 deg Mean anomaly: 119.8976 deg Mean motion: 14.79772804 rev/day Decay rate: 2.73e-06 rev/day^2 Epoch rev: 39523 Checksum: 294
Satellite: AO-16 Catalog number: 20439 Epoch time: 10055.89241841 Element set: 831 Inclination: 098.3180 deg RA of node: 018.3014 deg Eccentricity: 0.0011575 Arg of perigee: 136.3586 deg Mean anomaly: 223.8517 deg Mean motion: 14.31849803 rev/day Decay rate: 5.1e-07 rev/day^2 Epoch rev: 4931 Checksum: 285
Satellite: LO-19 Catalog number: 20442 Epoch time: 10056.74667364 Element set: 742 Inclination: 098.2799 deg RA of node: 025.3762 deg Eccentricity: 0.0012820 Arg of perigee: 128.7657 deg Mean anomaly: 231.4692 deg Mean motion: 14.32082373 rev/day Decay rate: -1.5e-07 rev/day^2 Epoch rev: 4960 Checksum: 305
Satellite: AO-27 Catalog number: 22825 Epoch time: 10056.84571807 Element set: 465 Inclination: 098.4719 deg RA of node: 007.7474 deg Eccentricity: 0.0007714 Arg of perigee: 233.6134 deg Mean anomaly: 126.4335 deg Mean motion: 14.29287270 rev/day Decay rate: -1.05e-06 rev/day^2 Epoch rev: 85614 Checksum: 310
Satellite: IO-26 Catalog number: 22826 Epoch time: 10056.86105389 Element set: 201 Inclination: 098.4661 deg RA of node: 008.4070 deg Eccentricity: 0.0008166 Arg of perigee: 229.2654 deg Mean anomaly: 130.7824 deg Mean motion: 14.29542221 rev/day Decay rate: 3.0e-07 rev/day^2 Epoch rev: 85625 Checksum: 284
Satellite: GO-32 Catalog number: 25397 Epoch time: 10056.80722328 Element set: 121 Inclination: 098.3183 deg RA of node: 070.3804 deg Eccentricity: 0.0000845 Arg of perigee: 173.1533 deg Mean anomaly: 186.9656 deg Mean motion: 14.23171564 rev/day Decay rate: -8.3e-07 rev/day^2 Epoch rev: 60420 Checksum: 283
Satellite: NO-44 Catalog number: 26931 Epoch time: 10056.19675298 Element set: 395 Inclination: 067.0524 deg RA of node: 132.5107 deg Eccentricity: 0.0006605 Arg of perigee: 264.0099 deg Mean anomaly: 096.0233 deg Mean motion: 14.29585338 rev/day Decay rate: 1.09e-06 rev/day^2 Epoch rev: 43874 Checksum: 312
Satellite: SO-50 Catalog number: 27607 Epoch time: 10056.28189856 Element set: 111 Inclination: 064.5610 deg RA of node: 336.4075 deg Eccentricity: 0.0037997 Arg of perigee: 128.5867 deg Mean anomaly: 231.8656 deg Mean motion: 14.71503656 rev/day Decay rate: 7.5e-07 rev/day^2 Epoch rev: 38591 Checksum: 329
Satellite: CO-55 Catalog number: 27844 Epoch time: 10056.53792619 Element set: 788 Inclination: 098.7135 deg RA of node: 067.1063 deg Eccentricity: 0.0010355 Arg of perigee: 129.4214 deg Mean anomaly: 230.7876 deg Mean motion: 14.20686851 rev/day Decay rate: 7.6e-07 rev/day^2 Epoch rev: 34523 Checksum: 320
Satellite: CO-57 Catalog number: 27848 Epoch time: 10055.70603994 Element set: 739 Inclination: 098.7187 deg RA of node: 065.3642 deg Eccentricity: 0.0010457 Arg of perigee: 135.4247 deg Mean anomaly: 224.7767 deg Mean motion: 14.20481905 rev/day Decay rate: 5.1e-07 rev/day^2 Epoch rev: 34507 Checksum: 323
Satellite: AO-51 Catalog number: 28375 Epoch time: 10056.53910084 Element set: 612 Inclination: 098.0570 deg RA of node: 056.4198 deg Eccentricity: 0.0085004 Arg of perigee: 075.8604 deg Mean anomaly: 285.2021 deg Mean motion: 14.40670688 rev/day Decay rate: 3.2e-07 rev/day^2 Epoch rev: 29743 Checksum: 296
Satellite: GENESAT1 Catalog number: 29655 Epoch time: 10056.33494866 Element set: 958 Inclination: 040.0201 deg RA of node: 028.5989 deg Eccentricity: 0.0006369 Arg of perigee: 244.2394 deg Mean anomaly: 115.7766 deg Mean motion: 15.75420849 rev/day Decay rate: 5.0583e-04 rev/day^2 Epoch rev: 18225 Checksum: 329
Satellite: CP3 Catalog number: 31129 Epoch time: 10056.11542037 Element set: 513 Inclination: 097.9539 deg RA of node: 101.6085 deg Eccentricity: 0.0101597 Arg of perigee: 221.1053 deg Mean anomaly: 138.2494 deg Mean motion: 14.52213717 rev/day Decay rate: 9.4e-07 rev/day^2 Epoch rev: 15159 Checksum: 271
Satellite: CO-65 Catalog number: 32785 Epoch time: 10055.71988635 Element set: 612 Inclination: 097.9101 deg RA of node: 122.1393 deg Eccentricity: 0.0013946 Arg of perigee: 292.8132 deg Mean anomaly: 067.1633 deg Mean motion: 14.81590646 rev/day Decay rate: 1.0e-07 rev/day^2 Epoch rev: 9883 Checksum: 311
Satellite: KKS-1 Catalog number: 33493 Epoch time: 10056.77143461 Element set: 243 Inclination: 098.0713 deg RA of node: 175.4115 deg Eccentricity: 0.0020942 Arg of perigee: 139.0434 deg Mean anomaly: 221.2359 deg Mean motion: 14.80870584 rev/day Decay rate: 7.29e-06 rev/day^2 Epoch rev: 5899 Checksum: 298
Satellite: SOHLA-1 Catalog number: 33496 Epoch time: 10056.21779338 Element set: 34 Inclination: 098.0470 deg RA of node: 166.8136 deg Eccentricity: 0.0006286 Arg of perigee: 190.1212 deg Mean anomaly: 169.9875 deg Mean motion: 14.69472200 rev/day Decay rate: 9.8e-07 rev/day^2 Epoch rev: 5843 Checksum: 310
/EX SB KEPS @ AMSAT $ORB10056.W Orbital Elements 10056.WEATHER
HR AMSAT ORBITAL ELEMENTS FOR WEATHER SATELLITES FROM WA5QGD FORT WORTH,TX February 25, 2010 Send Subscribe/unsubscribe to KEPS at http://www.amsat.org/mailman/listinfo/keps BID: ORB10056.W TO ALL RADIO AMATEURS BT
Satellite: NOAA-10 Catalog number: 16969 Epoch time: 10056.48909207 Element set: 970 Inclination: 098.6704 deg RA of node: 086.4459 deg Eccentricity: 0.0012566 Arg of perigee: 173.9698 deg Mean anomaly: 186.1653 deg Mean motion: 14.27407179 rev/day Decay rate: -5.1e-07 rev/day^2 Epoch rev: 21964 Checksum: 344
Satellite: NOAA-11 Catalog number: 19531 Epoch time: 10056.29873256 Element set: 985 Inclination: 098.7696 deg RA of node: 147.2276 deg Eccentricity: 0.0012204 Arg of perigee: 105.4889 deg Mean anomaly: 254.7647 deg Mean motion: 14.14916950 rev/day Decay rate: 2.44e-06 rev/day^2 Epoch rev: 10531 Checksum: 320
Satellite: NOAA-12 Catalog number: 21263 Epoch time: 10056.40735022 Element set: 466 Inclination: 098.7674 deg RA of node: 069.5586 deg Eccentricity: 0.0013496 Arg of perigee: 126.4480 deg Mean anomaly: 233.8434 deg Mean motion: 14.25618476 rev/day Decay rate: 6.4e-07 rev/day^2 Epoch rev: 97647 Checksum: 321
Satellite: MET-3/5 Catalog number: 21655 Epoch time: 10056.35396909 Element set: 745 Inclination: 082.5561 deg RA of node: 027.6406 deg Eccentricity: 0.0012235 Arg of perigee: 270.0346 deg Mean anomaly: 089.9466 deg Mean motion: 13.17020603 rev/day Decay rate: 5.1e-07 rev/day^2 Epoch rev: 89095 Checksum: 299
Satellite: MET-2/21 Catalog number: 22782 Epoch time: 10056.71161767 Element set: 706 Inclination: 082.5512 deg RA of node: 340.8860 deg Eccentricity: 0.0022546 Arg of perigee: 359.7781 deg Mean anomaly: 000.3369 deg Mean motion: 13.83644115 rev/day Decay rate: 8.3e-07 rev/day^2 Epoch rev: 83266 Checksum: 302
Satellite: OKEAN-4 Catalog number: 23317 Epoch time: 10056.77460036 Element set: 163 Inclination: 082.5385 deg RA of node: 097.8535 deg Eccentricity: 0.0020366 Arg of perigee: 247.9481 deg Mean anomaly: 111.9562 deg Mean motion: 14.82773223 rev/day Decay rate: 3.28e-06 rev/day^2 Epoch rev: 82994 Checksum: 314
